• In Netherlands
  • List of Countries
  • For 7 days
  • Water Temperature
  • Satellite Maps
  • Weather Map
  • Weather Widgets
  • user-avatar
    Login

    Hourly Weather Pomorie

    Today, 19 October, Thursday

    Time Temperature Precipitation Wind Pressure Humidity
    00:00 +16°C° 0 mm 1 mps 764 mmHg 58%
    01:00 +16°C° 0 mm 1 mps 764 mmHg 58%
    02:00 +16°C° 0 mm 1 mps 764 mmHg 58%
    03:00 +15°C° 0 mm 0 mps 764 mmHg 57%
    04:00 +14°C° 0 mm 0 mps 764 mmHg 57%
    05:00 +14°C° 0 mm 0 mps 764 mmHg 57%
    06:00 +15°C° 0 mm 0 mps 764 mmHg 55%
    07:00 +16°C° 0 mm 0 mps 764 mmHg 52%
    08:00 +19°C° 0 mm 1 mps 764 mmHg 50%
    09:00 +21°C° 0 mm 1 mps 763 mmHg 44%
    10:00 +23°C° 0 mm 1 mps 763 mmHg 38%
    11:00 +26°C° 0 mm 1 mps 763 mmHg 32%
    12:00 +26°C° 0 mm 1 mps 763 mmHg 31%
    13:00 +27°C° 0 mm 2 mps 763 mmHg 30%
    14:00 +28°C° 0 mm 2 mps 763 mmHg 28%
    15:00 +26°C° 0 mm 2 mps 763 mmHg 34%
    16:00 +25°C° 0 mm 2 mps 762 mmHg 40%
    17:00 +23°C° 0 mm 2 mps 762 mmHg 46%
    18:00 +21°C° 0 mm 2 mps 762 mmHg 52%
    19:00 +20°C° 0 mm 2 mps 763 mmHg 58%
    20:00 +18°C° 0 mm 2 mps 763 mmHg 63%
    21:00 +18°C° 0 mm 2 mps 763 mmHg 65%
    22:00 +18°C° 0 mm 2 mps 763 mmHg 66%
    23:00 +18°C° 0 mm 1 mps 763 mmHg 67%

    Tomorrow, 20 October, Friday

    Time Temperature Precipitation Wind Pressure Humidity
    00:00 +18°C° 0 mm 1 mps 763 mmHg 67%
    01:00 +18°C° 0 mm 1 mps 763 mmHg 67%
    02:00 +18°C° 0 mm 1 mps 763 mmHg 66%
    03:00 +16°C° 0 mm 1 mps 763 mmHg 65%
    04:00 +16°C° 0 mm 1 mps 762 mmHg 64%
    05:00 +16°C° 0 mm 1 mps 762 mmHg 63%
    06:00 +16°C° 0 mm 1 mps 763 mmHg 60%
    07:00 +18°C° 0 mm 1 mps 763 mmHg 57%
    08:00 +19°C° 0 mm 1 mps 763 mmHg 54%
    09:00 +21°C° 0 mm 1 mps 763 mmHg 47%
    10:00 +24°C° 0 mm 1 mps 763 mmHg 40%
    11:00 +26°C° 0 mm 1 mps 763 mmHg 34%
    12:00 +27°C° 0 mm 1 mps 763 mmHg 32%
    13:00 +27°C° 0 mm 1 mps 763 mmHg 29%
    14:00 +28°C° 0 mm 1 mps 762 mmHg 27%
    15:00 +27°C° 0 mm 2 mps 762 mmHg 31%
    16:00 +25°C° 0 mm 2 mps 762 mmHg 35%
    17:00 +24°C° 0 mm 2 mps 762 mmHg 38%
    18:00 +23°C° 0 mm 2 mps 762 mmHg 41%
    19:00 +20°C° 0 mm 2 mps 762 mmHg 44%
    20:00 +19°C° 0 mm 2 mps 763 mmHg 47%
    21:00 +19°C° 0 mm 2 mps 763 mmHg 48%
    22:00 +19°C° 0 mm 1 mps 763 mmHg 49%
    23:00 +19°C° 0 mm 1 mps 763 mmHg 50%

    Day after tomorrow, 21 October, Saturday

    Time Temperature Precipitation Wind Pressure Humidity
    00:00 +19°C° 0 mm 1 mps 763 mmHg 51%
    01:00 +18°C° 0 mm 1 mps 763 mmHg 52%
    02:00 +17°C° 0 mm 2 mps 763 mmHg 53%
    03:00 +17°C° 0 mm 2 mps 763 mmHg 54%
    04:00 +17°C° 0 mm 2 mps 763 mmHg 55%
    05:00 +16°C° 0 mm 2 mps 762 mmHg 56%
    06:00 +17°C° 0 mm 2 mps 763 mmHg 55%
    07:00 +18°C° 0 mm 2 mps 763 mmHg 54%
    08:00 +18°C° 0 mm 2 mps 763 mmHg 54%
    09:00 +20°C° 0 mm 2 mps 763 mmHg 49%
    10:00 +23°C° 0 mm 2 mps 763 mmHg 44%
    11:00 +25°C° 0 mm 2 mps 763 mmHg 39%
    12:00 +26°C° 0 mm 2 mps 763 mmHg 38%
    13:00 +26°C° 0 mm 2 mps 763 mmHg 36%
    14:00 +27°C° 0 mm 2 mps 762 mmHg 35%
    15:00 +26°C° 0 mm 2 mps 762 mmHg 39%
    16:00 +24°C° 0 mm 2 mps 762 mmHg 43%
    17:00 +23°C° 0 mm 2 mps 762 mmHg 48%
    18:00 +21°C° 0 mm 2 mps 762 mmHg 52%
    19:00 +20°C° 0 mm 2 mps 763 mmHg 56%
    20:00 +19°C° 0 mm 1 mps 763 mmHg 60%
    21:00 +18°C° 0 mm 2 mps 763 mmHg 62%
    22:00 +17°C° 0 mm 2 mps 763 mmHg 65%
    23:00 +17°C° 0 mm 2 mps 763 mmHg 67%

    22 October, Sunday

    Time Temperature Precipitation Wind Pressure Humidity
    00:00 +16°C° 0 mm 2 mps 763 mmHg 69%
    01:00 +16°C° 0 mm 2 mps 763 mmHg 72%
    02:00 +16°C° 0 mm 2 mps 763 mmHg 74%
    03:00 +16°C° 0 mm 2 mps 763 mmHg 76%
    04:00 +15°C° 0 mm 2 mps 763 mmHg 78%
    05:00 +15°C° 0 mm 2 mps 763 mmHg 80%
    06:00 +16°C° 0.1 mm 2 mps 763 mmHg 79%
    07:00 +16°C° 0.1 mm 2 mps 763 mmHg 78%
    08:00 +17°C° 0.1 mm 2 mps 764 mmHg 76%
    09:00 +19°C° 0 mm 2 mps 764 mmHg 68%
    10:00 +20°C° 0 mm 3 mps 764 mmHg 61%
    11:00 +22°C° 0 mm 3 mps 764 mmHg 53%
    12:00 +22°C° 0 mm 4 mps 764 mmHg 52%
    13:00 +22°C° 0 mm 4 mps 763 mmHg 51%
    14:00 +23°C° 0 mm 4 mps 763 mmHg 50%
    15:00 +21°C° 0 mm 4 mps 763 mmHg 57%
    16:00 +20°C° 0 mm 4 mps 763 mmHg 64%
    17:00 +19°C° 0 mm 4 mps 763 mmHg 70%
    18:00 +18°C° 0 mm 4 mps 763 mmHg 77%
    19:00 +17°C° 0 mm 4 mps 763 mmHg 84%
    20:00 +15°C° 0 mm 4 mps 763 mmHg 91%
    21:00 +16°C° 0 mm 3 mps 763 mmHg 92%
    22:00 +14°C° 0 mm 3 mps 763 mmHg 93%
    23:00 +14°C° 0 mm 3 mps 763 mmHg 94%

    23 October, Monday

    Time Temperature Precipitation Wind Pressure Humidity
    00:00 +14°C° 0 mm 3 mps 762 mmHg 94%
    01:00 +15°C° 0 mm 2 mps 762 mmHg 94%
    02:00 +15°C° 0 mm 2 mps 762 mmHg 95%
    03:00 +15°C° 0 mm 2 mps 761 mmHg 95%
    04:00 +14°C° 0 mm 2 mps 761 mmHg 95%
    05:00 +14°C° 0 mm 2 mps 760 mmHg 95%
    06:00 +15°C° 0 mm 2 mps 760 mmHg 92%
    07:00 +14°C° 0 mm 3 mps 760 mmHg 90%
    08:00 +16°C° 0 mm 3 mps 760 mmHg 87%
    09:00 +17°C° 0 mm 3 mps 760 mmHg 79%
    10:00 +19°C° 0 mm 4 mps 759 mmHg 71%
    11:00 +20°C° 0 mm 5 mps 759 mmHg 63%
    12:00 +20°C° 0 mm 5 mps 759 mmHg 62%
    13:00 +21°C° 0 mm 5 mps 758 mmHg 61%
    14:00 +21°C° 0 mm 6 mps 757 mmHg 61%
    15:00 +20°C° 0 mm 6 mps 757 mmHg 67%
    16:00 +19°C° 0 mm 6 mps 758 mmHg 73%
    17:00 +17°C° 0 mm 6 mps 758 mmHg 78%
    18:00 +16°C° 0 mm 6 mps 758 mmHg 80%
    19:00 +16°C° 0 mm 6 mps 758 mmHg 82%
    20:00 +16°C° 0 mm 6 mps 758 mmHg 84%
    21:00 +16°C° 0.1 mm 6 mps 758 mmHg 85%
    22:00 +16°C° 0.1 mm 6 mps 758 mmHg 85%
    23:00 +16°C° 0.1 mm 7 mps 758 mmHg 86%

    24 October, Tuesday

    Time Temperature Precipitation Wind Pressure Humidity
    00:00 +16°C° 0.1 mm 7 mps 759 mmHg 85%
    01:00 +15°C° 0.1 mm 7 mps 759 mmHg 85%
    02:00 +15°C° 0.1 mm 7 mps 759 mmHg 85%
    03:00 +15°C° 0.1 mm 7 mps 759 mmHg 84%
    04:00 +15°C° 0.1 mm 7 mps 759 mmHg 84%
    05:00 +15°C° 0.1 mm 7 mps 759 mmHg 83%
    06:00 +15°C° 0.1 mm 8 mps 760 mmHg 82%
    07:00 +15°C° 0.1 mm 8 mps 760 mmHg 80%
    08:00 +15°C° 0.1 mm 8 mps 761 mmHg 79%
    09:00 +15°C° 0.1 mm 8 mps 761 mmHg 77%
    10:00 +16°C° 0.1 mm 8 mps 761 mmHg 75%
    11:00 +16°C° 0.1 mm 8 mps 762 mmHg 73%
    12:00 +16°C° 0.1 mm 9 mps 762 mmHg 73%
    13:00 +16°C° 0.1 mm 9 mps 762 mmHg 73%
    14:00 +16°C° 0.1 mm 9 mps 762 mmHg 72%
    15:00 +16°C° 0.1 mm 9 mps 762 mmHg 72%
    16:00 +16°C° 0.1 mm 8 mps 762 mmHg 72%
    17:00 +16°C° 0.1 mm 8 mps 763 mmHg 71%
    18:00 +15°C° 0 mm 8 mps 763 mmHg 73%
    19:00 +13°C° 0 mm 9 mps 764 mmHg 75%
    20:00 +12°C° 0 mm 9 mps 764 mmHg 77%
    21:00 +12°C° 0 mm 9 mps 764 mmHg 77%
    22:00 +11°C° 0 mm 9 mps 765 mmHg 78%
    23:00 +11°C° 0 mm 9 mps 765 mmHg 78%
    Show more